Location: Plainartige
(45.6866°N, 1.7993°E)
Time: 10:45:36
(UTC+00:00)

Tiros 1 - Pass Details

Date: 01 June 2022
Orbit: 629 x 663 km, 48.4° (Epoch: 04 July)

Event Time Altitude Azimuth Distance (km) Brightness Sun altitude
Rises 21:02:02 0° 202° (SSW) 2,902 10.2 -12.1°
Reaches altitude 10° 21:04:49 10° 186° (S) 1,997 9.3 -12.4°
Maximum altitude 21:08:11 20° 138° (SE) 1,436 8.3 -12.8°
Drops below altitude 10° 21:11:35 10° 90° (E) 2,006 9.3 -13.1°
Sets 21:14:22 0° 75° (ENE) 2,920 10.3 -13.4°
